RH
99 90 78 90 90 93 92 91 91 76 74 77 77 76 74 70 70 69 80 78 80 89 94 100 94 86 79 80 85 73 65 73 71 66 65 65 66 71 69 67 77 89 97
98 100 98 99 100 100 100 99 86 88 85 79 78 76 75 85 94 99 100 93 99 100 100 100 91 88 83 78 84 80 83 78 74 70 67 67 71 67 68 67 86 100 100
100 100 100 100 100 100 100 100 96 92 96 94 88 87 95 100 100 100 100 100 100 100 100 100 100 96 89 84 77 81 89 84 75 75 72 58 69 68 71 74 94 98 99
100 100 100 100 100 100 100 100 100 100 100 100 100 100 100 100 100 100 100 100 100 100 100 100 100 94 88 82 83 97 91 76 77 70 70 66 68 58 62 59 75 78 76
100 100 100 100 100 100 100 100 100 98 95 98 98 100 100 100 100 100 100 86 100 100 98 94 94 90 85 84 96 92 84 77 66 55 57 66 55 56 52 49 52 61 68
100 100 100 100 100 100 100 100 100 99 95 95 100 100 100 100 100 98 100 98 83 92 88 76 73 72 69 82 79 74 70 65 56 50 50 56 56 73 79 89 91 94 98
100 100 100 100 100 100 100 100 100 100 100 100 98 100 100 98 96 97 100 100 95 85 88 80 89 86 81 85 77 73 60 55 45 45 46 64 92 98 100 100 98 92 100
100 100 100 100 100 100 100 100 100 100 100 100 100 100 100 100 97 99 98 91 89 83 100 99 100 97 90 84 71 60 49 46 41 39 46 62 42 38 30 29 31 38 55
83 100 100 100 100 100 100 100 100 100 100 100 100 100 100 93 94 91 95 85 99 95 96 100 100 92 79 72 53 49 45 42 38 43 26 20 20 18 19 21 25 30 37
77 87 98 100 100 100 100 100 100 95 95 98 98 100 96 93 99 97 96 98 100 100 100 97 86 77 59 45 49 52 45 50 41 26 23 21 20 16 13 14 16 23 29
56 98 100 97 98 100 100 100 100 100 100 100 100 100 100 100 100 100 100 100 100 100 90 76 65 47 58 63 66 76 71 41 32 28 27 24 19 20 12 7 9 13 19
28 35 76 93 92 96 98 100 100 100 100 100 100 99 100 100 100 100 100 100 99 81 70 59 51 64 79 92 85 79 42 38 34 30 30 26 20 15 12 6 6 7 10
24 27 26 42 91 100 100 100 100 100 100 100 100 100 100 100 100 100 91 84 78 67 63 65 87 93 96 90 73 46 43 39 38 36 34 30 27 21 16 12 10 10 10
20 25 30 30 45 89 100 100 100 100 100 100 99 100 99 92 82 91 80 79 75 87 88 94 93 93 78 48 50 47 41 42 46 40 39 35 32 34 31 25 20 16 14
20 21 25 32 36 40 49 61 64 70 84 93 86 91 90 92 91 90 78 92 100 92 99 96 90 56 53 49 54 44 44 49 46 45 41 39 39 41 43 40 37 34 34
22 29 34 38 40 43 52 64 67 95 99 90 100 100 100 100 94 99 100 100 100 100 97 71 60 53 52 55 47 48 50 52 48 49 43 42 44 46 47 46 45 46 47
21 27 51 72 87 96 100 85 83 91 98 96 98 99 100 100 100 100 100 100 99 88 66 64 53 58 53 49 55 52 53 52 55 51 46 45 51 56 52 51 50 50 55
23 22 30 84 98 100 100 100 100 100 100 100 100 100 100 100 100 100 100 92 77 69 64 58 60 51 48 52 52 56 53 58 56 51 50 52 53 52 49 50 57 63 66
32 33 40 56 71 96 100 100 100 100 100 100 100 100 100 100 91 80 84 80 78 64 68 60 50 50 57 50 49 54 58 60 58 55 52 51 55 60 60 59 57 59 62
49 48 53 58 55 68 78 82 95 98 95 81 89 89 80 83 87 85 85 69 77 72 55 49 51 56 54 51 52 58 60 63 64 59 59 65 67 65 61 60 61 65 68
84 82 82 89 89 88 89 91 83 84 84 90 92 96 98 97 88 73 80 76 58 52 52 51 60 64 58 57 60 63 64 70 72 69 64 64 64 66 64 64 68 71 72
75 77 87 93 93 92 94 96 100 100 99 100 99 96 92 79 80 74 58 52 56 56 54 59 75 68 65 65 68 72 75 78 70 65 67 71 72 73 74 75 76 76 74
90 94 94 94 100 100 100 100 99 99 90 92 91 82 84 69 55 54 57 61 60 60 70 82 77 71 70 74 80 81 80 77 76 74 76 73 71 74 80 81 81 77 71
95 93 95 97 100 99 97 98 98 98 89 89 88 66 58 60 64 68 70 75 74 78 80 81 78 79 84 85 82 83 82 82 79 78 73 69 69 80 84 81 75 68 68
85 87 90 88 87 89 91 94 98 99 90 69 62 68 71 72 73 80 84 85 77 82 87 89 94 92 84 84 87 87 84 83 84 79 70 72 78 85 81 76 68 64 65
84 88 89 93 98 100 99 87 79 74 71 72 74 71 71 71 72 75 82 78 75 79 84 92 90 87 90 88 84 83 88 89 82 75 77 83 84 83 80 72 65 66 68
Wind_Speed
102 100 99 96 92 89 88 88 86 86 84 82 81 81 81 80 79 80 80 82 83 82 80 77 79 81 82 84 87 91 94 94 96 97 98 97 99 98 96 95 89 86 82
103 100 97 95 94 94 92 91 89 87 86 86 85 83 83 81 80 79 80 81 79 76 77 80 84 84 86 88 92 94 96 101 102 103 103 104 102 101 100 95 88 83 82
105 102 98 95 94 95 95 93 91 89 88 86 85 83 82 79 78 79 78 77 78 78 80 82 85 89 91 93 96 99 101 103 106 108 110 109 106 104 99 93 87 86 84
108 104 101 97 96 97 96 93 92 90 88 85 81 80 80 80 81 80 79 79 83 84 84 86 90 93 97 99 101 102 105 106 108 111 113 115 109 100 93 93 91 90 88
110 107 105 102 100 98 97 96 96 95 93 90 89 85 82 82 83 83 87 88 87 88 92 94 96 98 101 104 105 107 108 111 112 113 110 107 104 97 94 92 94 95 95
115 113 109 105 103 101 98 97 96 96 96 94 91 89 87 86 88 89 88 93 95 96 99 103 105 105 106 108 111 113 115 116 117 108 103 94 101 103 102 100 101 101 99
116 116 113 110 106 103 101 99 97 94 94 93 93 91 91 92 92 93 94 95 100 103 102 106 106 108 112 113 115 118 122 120 107 96 94 101 103 107 108 110 112 110 105
118 115 114 113 110 107 103 101 99 98 97 96 95 95 96 97 97 96 98 99 101 102 101 104 106 112 116 118 121 123 111 105 103 102 104 110 110 109 108 106 107 103 102
120 117 113 112 112 111 109 106 104 103 100 100 99 98 99 99 99 100 100 101 101 103 105 108 111 116 117 121 112 106 103 99 104 107 105 102 101 99 98 101 102 103 102
116 117 116 114 113 112 110 108 108 107 105 103 102 100 101 101 101 103 103 105 104 107 110 113 116 116 111 102 96 98 103 104 107 100 96 93 94 94 92 92 95 98 101
113 115 115 115 114 112 110 108 108 107 104 104 105 104 104 105 105 105 106 108 111 113 114 114 107 101 96 95 94 101 109 106 96 86 79 79 78 76 82 76 73 78 83
103 109 114 115 114 113 111 108 107 106 105 105 106 107 106 107 108 109 112 113 113 112 108 104 95 95 96 97 102 108 94 91 79 73 73 79 82 74 61 60 55 54 59
94 98 103 109 113 114 113 110 109 107 106 108 108 108 109 109 109 110 111 107 104 101 98 92 92 94 99 103 108 91 83 74 70 70 74 77 75 76 66 50 45 45 47
85 88 91 95 101 106 109 108 108 108 110 111 112 109 105 100 99 96 96 93 91 88 89 90 95 98 105 93 85 77 69 65 64 67 68 69 66 62 60 59 48 42 38
78 82 84 86 87 88 90 92 92 93 91 92 93 89 89 87 86 89 88 83 86 88 89 93 100 96 86 77 69 67 61 60 60 61 63 61 57 54 51 47 43 38 31
72 77 79 80 80 82 82 83 82 76 78 78 71 76 78 78 81 79 81 84 87 89 94 99 83 79 73 65 61 59 56 54 56 58 58 55 51 50 49 45 41 38 36
67 71 76 78 76 76 75 77 72 71 70 71 72 72 73 73 77 81 81 87 92 98 86 80 74 68 62 57 54 57 52 52 54 55 55 52 51 50 48 47 45 44 43
63 66 70 78 78 74 76 70 64 61 61 65 66 68 73 77 80 87 92 93 81 77 75 68 63 61 56 52 50 50 49 50 52 52 51 49 49 49 51 53 54 53 53
59 62 65 69 72 75 77 72 73 73 74 77 81 82 84 86 83 76 73 73 74 69 62 59 59 55 53 50 49 46 48 50 51 51 51 50 50 50 51 52 51 51 52
50 53 54 56 60 63 70 73 77 78 75 70 68 68 67 66 67 69 71 64 59 58 58 57 53 49 50 50 46 45 48 49 51 51 51 51 51 52 53 54 55 57 59
50 50 50 51 54 56 60 61 62 59 59 59 61 62 63 65 67 61 55 55 56 56 55 48 45 45 43 41 42 46 48 50 51 51 50 52 53 55 56 58 60 62 64
47 47 49 51 52 53 52 52 54 59 58 60 58 64 63 57 50 51 53 52 51 47 43 41 40 37 38 42 44 47 49 50 51 52 53 55 56 57 59 62 64 67 69
43 44 45 49 54 53 50 52 53 56 59 57 55 51 45 46 47 45 42 42 41 40 38 37 37 39 42 44 47 48 49 49 51 52 54 55 58 60 61 65 68 70 71
37 37 38 39 41 46 51 53 51 51 48 43 41 40 40 41 40 38 37 36 35 35 36 38 41 43 45 47 47 48 49 49 51 53 55 57 60 61 64 68 69 70 74
38 39 41 42 43 43 42 39 37 36 37 38 38 38 38 36 36 36 36 36 35 36 38 41 42 44 46 46 48 49 48 50 52 54 58 60 61 64 67 69 73 75 76
39 37 36 34 33 31 31 32 33 34 35 36 37 37 37 38 38 36 37 37 37 38 40 41 43 44 45 47 47 46 48 51 55 58 59 61 63 67 71 75 77 76 78
Wind_Direction
228 232 234 238 239 242 244 247 249 251 253 255 258 262 265 268 272 275 276 279 282 281 284 284 287 289 290 293 294 295 297 298 299 301 302 303 303 303 302 302 300 297 295
228 231 234 238 241 243 244 246 249 252 254 257 259 262 266 268 270 272 274 277 280 283 283 285 287 289 289 291 293 294 297 298 301 301 303 303 302 300 301 300 296 294 292
230 232 233 236 239 242 244 246 249 252 255 258 260 262 264 266 268 270 275 278 280 280 282 285 287 288 290 291 293 295 298 299 300 300 301 301 301 300 299 296 292 290 290
231 232 235 237 239 242 245 248 250 251 254 256 259 264 266 267 269 272 273 274 276 279 283 283 284 287 290 292 294 296 297 298 299 301 302 301 300 297 293 293 291 290 289
232 233 235 238 240 242 245 248 250 252 253 255 257 259 263 266 268 271 271 274 276 277 278 281 284 288 290 292 294 295 296 298 299 301 300 297 295 295 293 292 291 289 290
234 234 235 237 240 242 245 248 250 253 255 257 259 261 263 265 268 272 275 276 277 280 281 283 286 288 290 292 292 294 296 298 300 300 298 296 297 296 294 291 290 289 287
234 236 237 238 241 244 246 248 250 252 255 257 259 262 264 266 268 271 274 278 279 284 286 288 290 291 293 294 295 296 298 300 300 297 295 296 293 291 289 287 285 283 282
235 237 239 241 242 244 246 249 251 253 256 258 260 263 265 267 270 274 274 277 280 284 286 288 291 293 294 297 296 299 298 297 298 299 298 296 293 291 289 286 283 280 279
236 238 240 243 245 245 247 249 251 254 257 259 262 265 267 270 273 276 278 280 281 283 285 287 290 292 296 295 296 297 298 299 301 301 300 298 296 293 288 284 280 277 276
238 239 241 243 245 248 250 252 254 255 258 261 264 266 268 271 273 275 277 279 282 284 286 290 292 294 295 294 297 299 300 302 303 303 303 302 302 297 291 285 279 274 271
237 239 242 244 246 249 251 253 255 258 260 262 264 266 268 271 274 276 278 281 282 284 288 291 292 293 293 297 298 299 301 303 303 303 304 304 306 309 299 293 284 275 269
239 240 242 244 247 249 251 253 256 258 261 263 264 266 269 271 274 276 278 282 285 286 288 292 293 293 295 294 297 298 300 300 301 301 304 308 311 316 317 301 295 285 274
239 241 243 244 246 248 250 253 255 258 261 262 265 267 270 273 274 278 280 282 285 287 290 289 291 291 292 295 296 297 298 300 300 305 308 310 313 318 325 323 306 296 286
238 240 243 245 247 249 252 254 256 259 261 263 268 271 273 274 276 279 281 283 286 286 286 287 288 291 293 295 295 295 297 297 300 307 308 310 315 322 325 331 331 312 298
236 239 242 245 247 250 252 254 258 261 260 263 268 270 272 274 275 278 281 281 279 282 283 286 289 291 291 292 293 294 296 297 304 305 307 311 317 322 327 330 334 335 331
233 237 240 244 247 250 252 255 258 257 258 261 264 266 271 270 273 274 275 276 277 280 284 289 288 289 290 292 291 292 296 298 302 304 309 314 318 322 326 330 333 338 339
231 233 237 241 245 247 250 254 259 259 261 263 263 264 263 265 269 270 273 276 280 284 285 286 287 287 290 291 289 292 294 299 303 305 309 315 319 322 323 325 328 331 333
232 234 234 237 240 242 248 251 249 251 252 253 258 260 263 266 269 273 277 280 282 283 285 285 286 287 290 290 289 291 294 300 302 306 311 314 317 320 324 329 331 330 329
232 234 235 236 239 242 243 244 247 250 253 255 261 264 265 268 273 276 276 279 281 283 283 285 286 289 288 288 291 291 297 300 302 306 309 314 318 320 320 320 323 325 324
234 237 239 241 242 242 244 248 251 255 258 262 263 266 270 272 274 276 279 281 280 281 282 285 287 287 285 289 290 293 296 299 300 304 309 313 314 314 315 318 321 323 323
234 237 240 242 245 247 250 252 254 258 261 263 266 268 271 272 276 278 277 277 278 279 282 285 286 287 289 289 292 294 297 301 301 303 307 308 311 313 315 317 319 321 320
240 242 242 243 246 249 253 256 257 258 263 265 267 270 272 273 274 274 275 274 276 278 283 285 286 287 289 292 294 295 297 299 299 303 307 309 311 313 314 315 317 319 318
241 243 243 242 243 245 248 250 254 258 263 268 268 267 267 271 272 274 277 278 279 282 284 286 288 290 291 293 295 296 297 298 300 303 305 308 312 314 313 315 317 317 316
229 233 234 236 239 243 248 252 256 260 262 259 259 265 267 269 274 278 282 282 282 284 285 287 288 290 291 292 293 296 297 297 300 303 305 308 311 313 313 314 315 316 316
234 237 239 241 244 247 249 249 247 248 250 256 260 264 268 275 280 280 280 282 281 283 285 287 287 287 290 293 295 296 298 301 303 304 307 310 312 313 313 314 315 316 318
238 238 238 238 235 232 232 238 244 250 254 258 261 266 270 274 277 280 278 279 280 281 284 286 287 290 292 293 296 298 301 302 304 307 309 311 312 313 314 314 316 317 319